Time,TemperatureF,DewpointF,PressureIn,WindDirection,WindDirectionDegrees,WindSpeedMPH,WindSpeedGustMPH,Humidity,HourlyPrecipIn,Conditions,Clouds,dailyrainin,SoftwareType,DateUTC
2013-04-02 00:41:00,33.5,24.0,29.97,NNW,332,0.0,1.0,68,0.00,,,0.00,weatherlink.com 1.10,2013-04-02 06:41:00,
2013-04-02 00:56:00,32.4,24.0,29.98,NNW,332,0.0,1.0,70,0.00,,,0.00,weatherlink.com 1.10,2013-04-02 06:56:00,
2013-04-02 01:11:00,32.2,24.0,29.97,WNW,291,0.0,4.0,71,0.00,,,0.00,weatherlink.com 1.10,2013-04-02 07:11:00,
2013-04-02 01:26:00,31.9,23.0,29.98,ESE,118,2.0,2.0,71,0.00,,,0.00,weatherlink.com 1.10,2013-04-02 07:26:00,
2013-04-02 01:41:00,31.6,24.0,29.98,ESE,122,0.0,3.0,73,0.00,,,0.00,weatherlink.com 1.10,2013-04-02 07:41:00,
2013-04-02 01:56:00,31.0,23.0,29.97,ESE,112,0.0,2.0,73,0.00,,,0.00,weatherlink.com 1.10,2013-04-02 07:56:00,
2013-04-02 02:11:00,30.3,23.0,29.97,SSE,149,0.0,2.0,74,0.00,,,0.00,weatherlink.com 1.10,2013-04-02 08:11:00,
2013-04-02 02:26:00,30.1,23.0,29.97,ESE,120,0.0,3.0,76,0.00,,,0.00,weatherlink.com 1.10,2013-04-02 08:26:00,
2013-04-02 02:41:00,29.8,23.0,29.96,ESE,120,1.0,2.0,76,0.00,,,0.00,weatherlink.com 1.10,2013-04-02 08:41:00,
2013-04-02 03:11:00,29.6,24.0,29.96,ESE,112,2.0,4.0,78,0.00,,,0.00,weatherlink.com 1.10,2013-04-02 09:11:00,
2013-04-02 03:26:00,29.6,23.0,29.96,ENE,68,1.0,4.0,77,0.00,,,0.00,weatherlink.com 1.10,2013-04-02 09:26:00,
2013-04-02 03:41:00,28.6,23.0,29.97,SE,124,0.0,1.0,79,0.00,,,0.00,weatherlink.com 1.10,2013-04-02 09:41:00,
2013-04-02 03:56:00,27.9,23.0,29.97,ESE,116,0.0,1.0,80,0.00,,,0.00,weatherlink.com 1.10,2013-04-02 09:56:00,
2013-04-02 04:12:00,27.7,23.0,29.97,SSE,148,1.0,1.0,81,0.00,,,0.00,weatherlink.com 1.10,2013-04-02 10:12:00,
2013-04-02 04:41:00,27.2,22.0,29.97,WSW,239,0.0,1.0,81,0.00,,,0.00,weatherlink.com 1.10,2013-04-02 10:41:00,
2013-04-02 04:56:00,26.4,21.0,29.97,WSW,239,1.0,1.0,81,0.00,,,0.00,weatherlink.com 1.10,2013-04-02 10:56:00,
2013-04-02 05:11:00,26.1,22.0,29.98,NE,39,0.0,2.0,83,0.00,,,0.00,weatherlink.com 1.10,2013-04-02 11:11:00,
2013-04-02 05:27:00,23.4,19.0,29.98,ESE,123,0.0,1.0,82,0.00,,,0.00,weatherlink.com 1.10,2013-04-02 11:27:00,
2013-04-02 05:57:00,-999.0,-99.9,29.98,North,-999,-999.0,-999.0,-999,0.00,,,0.00,weatherlink.com 1.10,2013-04-02 11:57:00,
2013-04-02 06:12:00,-999.0,-99.9,29.97,North,-999,-999.0,-999.0,-999,0.00,,,0.00,weatherlink.com 1.10,2013-04-02 12:12:00,
2013-04-02 06:27:00,-999.0,-99.9,29.97,North,-999,-999.0,-999.0,-999,0.00,,,0.00,weatherlink.com 1.10,2013-04-02 12:27:00,
2013-04-02 06:42:00,-999.0,-99.9,29.98,North,-999,-999.0,-999.0,-999,0.00,,,0.00,weatherlink.com 1.10,2013-04-02 12:42:00,
2013-04-02 06:57:00,-999.0,-99.9,29.98,North,-999,-999.0,-999.0,-999,0.00,,,0.00,weatherlink.com 1.10,2013-04-02 12:57:00,
2013-04-02 07:12:00,29.1,23.0,29.98,NNE,16,0.0,1.0,79,0.00,,,0.00,weatherlink.com 1.10,2013-04-02 13:12:00,
2013-04-02 07:27:00,29.0,23.0,29.99,West,274,0.0,1.0,77,0.00,,,0.00,weatherlink.com 1.10,2013-04-02 13:27:00,
2013-04-02 07:42:00,29.0,23.0,29.99,WSW,249,0.0,2.0,78,0.00,,,0.00,weatherlink.com 1.10,2013-04-02 13:42:00,
2013-04-02 07:57:00,30.0,24.0,30.00,WSW,250,1.0,1.0,77,0.00,,,0.00,weatherlink.com 1.10,2013-04-02 13:57:00,
2013-04-02 08:12:00,31.2,25.0,30.00,WNW,282,0.0,2.0,78,0.00,,,0.00,weatherlink.com 1.10,2013-04-02 14:12:00,
2013-04-02 08:27:00,33.4,26.0,30.00,WSW,253,0.0,1.0,75,0.00,,,0.00,weatherlink.com 1.10,2013-04-02 14:27:00,
2013-04-02 08:42:00,37.3,28.0,30.00,SSE,150,0.0,1.0,69,0.00,,,0.00,weatherlink.com 1.10,2013-04-02 14:42:00,
2013-04-02 08:57:00,41.7,30.0,30.00,ESE,123,1.0,1.0,64,0.00,,,0.00,weatherlink.com 1.10,2013-04-02 14:57:00,
2013-04-02 09:12:00,44.3,30.0,30.00,SSE,155,1.0,4.0,57,0.00,,,0.00,weatherlink.com 1.10,2013-04-02 15:12:00,
2013-04-02 09:27:00,46.5,30.0,30.00,NNE,25,0.0,2.0,53,0.00,,,0.00,weatherlink.com 1.10,2013-04-02 15:27:00,
2013-04-02 09:42:00,48.4,30.0,30.00,NW,311,1.0,1.0,50,0.00,,,0.00,weatherlink.com 1.10,2013-04-02 15:42:00,
2013-04-02 09:58:00,49.6,30.0,30.00,NNW,329,0.0,3.0,48,0.00,,,0.00,weatherlink.com 1.10,2013-04-02 15:58:00,
2013-04-02 10:13:00,50.2,30.0,29.99,NW,309,0.0,3.0,46,0.00,,,0.00,weatherlink.com 1.10,2013-04-02 16:13:00,
2013-04-02 10:28:00,52.3,30.0,29.99,NNW,345,0.0,4.0,43,0.00,,,0.00,weatherlink.com 1.10,2013-04-02 16:28:00,
2013-04-02 10:58:00,57.1,30.0,29.99,NNE,12,1.0,3.0,36,0.00,,,0.00,weatherlink.com 1.10,2013-04-02 16:58:00,
2013-04-02 11:13:00,57.0,29.0,29.98,WSW,248,1.0,4.0,35,0.00,,,0.00,weatherlink.com 1.10,2013-04-02 17:13:00,
2013-04-02 11:28:00,59.6,30.0,29.98,NNW,337,4.0,8.0,32,0.00,,,0.00,weatherlink.com 1.10,2013-04-02 17:28:00,
2013-04-02 11:43:00,60.9,29.0,29.97,SSW,195,1.0,6.0,30,0.00,,,0.00,weatherlink.com 1.10,2013-04-02 17:43:00,
2013-04-02 12:13:00,62.4,26.0,29.96,SSW,194,4.0,10.0,25,0.00,,,0.00,weatherlink.com 1.10,2013-04-02 18:13:00,
2013-04-02 12:28:00,61.6,26.0,29.95,SSE,160,4.0,10.0,26,0.00,,,0.00,weatherlink.com 1.10,2013-04-02 18:28:00,
2013-04-02 12:43:00,62.6,25.0,29.95,SSW,200,2.0,8.0,24,0.00,,,0.00,weatherlink.com 1.10,2013-04-02 18:43:00,
2013-04-02 12:58:00,62.8,24.0,29.94,SSE,152,6.0,9.0,23,0.00,,,0.00,weatherlink.com 1.10,2013-04-02 18:58:00,
2013-04-02 13:28:00,62.1,24.0,29.93,ESE,106,0.0,8.0,23,0.00,,,0.00,weatherlink.com 1.10,2013-04-02 19:28:00,
2013-04-02 13:43:00,62.2,24.0,29.93,WSW,243,3.0,13.0,23,0.00,,,0.00,weatherlink.com 1.10,2013-04-02 19:43:00,
2013-04-02 13:58:00,65.1,24.0,29.93,North,356,12.0,12.0,21,0.00,,,0.00,weatherlink.com 1.10,2013-04-02 19:58:00,
2013-04-02 14:13:00,65.5,23.0,29.92,West,259,2.0,9.0,20,0.00,,,0.00,weatherlink.com 1.10,2013-04-02 20:13:00,
2013-04-02 14:28:00,65.8,22.0,29.91,South,184,1.0,9.0,19,0.00,,,0.00,weatherlink.com 1.10,2013-04-02 20:28:00,
2013-04-02 14:43:00,65.5,22.0,29.91,West,274,5.0,11.0,19,0.00,,,0.00,weatherlink.com 1.10,2013-04-02 20:43:00,
2013-04-02 14:58:00,65.1,20.0,29.91,South,174,4.0,13.0,18,0.00,,,0.00,weatherlink.com 1.10,2013-04-02 20:58:00,
2013-04-02 15:13:00,65.0,22.0,29.90,South,184,1.0,10.0,19,0.00,,,0.00,weatherlink.com 1.10,2013-04-02 21:13:00,
2013-04-02 15:28:00,65.4,22.0,29.89,SW,215,3.0,12.0,19,0.00,,,0.00,weatherlink.com 1.10,2013-04-02 21:28:00,
2013-04-02 15:44:00,65.6,21.0,29.89,SSE,165,3.0,11.0,18,0.00,,,0.00,weatherlink.com 1.10,2013-04-02 21:44:00,
2013-04-02 15:58:00,67.1,22.0,29.88,South,179,3.0,9.0,18,0.00,,,0.00,weatherlink.com 1.10,2013-04-02 21:58:00,
2013-04-02 16:13:00,67.4,21.0,29.89,West,267,4.0,11.0,17,0.00,,,0.00,weatherlink.com 1.10,2013-04-02 22:13:00,
2013-04-02 16:28:00,66.5,23.0,29.89,NNE,13,4.0,16.0,19,0.00,,,0.00,weatherlink.com 1.10,2013-04-02 22:28:00,
2013-04-02 16:43:00,65.2,22.0,29.89,SSW,202,2.0,17.0,19,0.00,,,0.00,weatherlink.com 1.10,2013-04-02 22:43:00,
2013-04-02 16:58:00,67.5,22.0,29.89,SSW,209,3.0,11.0,18,0.00,,,0.00,weatherlink.com 1.10,2013-04-02 22:58:00,
2013-04-02 17:13:00,65.0,22.0,29.88,SSW,208,3.0,10.0,19,0.00,,,0.00,weatherlink.com 1.10,2013-04-02 23:13:00,
2013-04-02 17:29:00,65.3,23.0,29.89,WSW,256,2.0,9.0,20,0.00,,,0.00,weatherlink.com 1.10,2013-04-02 23:29:00,
2013-04-02 17:44:00,64.3,23.0,29.88,SW,231,1.0,7.0,21,0.00,,,0.00,weatherlink.com 1.10,2013-04-02 23:44:00,
2013-04-02 17:59:00,63.3,24.0,29.88,SSW,197,7.0,8.0,22,0.00,,,0.00,weatherlink.com 1.10,2013-04-02 23:59:00,
2013-04-02 18:14:00,62.2,24.0,29.89,SSW,194,4.0,8.0,23,0.00,,,0.00,weatherlink.com 1.10,2013-04-03 00:14:00,
2013-04-02 18:29:00,60.7,25.0,29.89,South,177,2.0,8.0,25,0.00,,,0.00,weatherlink.com 1.10,2013-04-03 00:29:00,
2013-04-02 18:44:00,59.2,24.0,29.89,SSE,162,2.0,11.0,26,0.00,,,0.00,weatherlink.com 1.10,2013-04-03 00:44:00,
2013-04-02 18:59:00,56.5,24.0,29.89,SSE,150,2.0,6.0,28,0.00,,,0.00,weatherlink.com 1.10,2013-04-03 00:59:00,
2013-04-02 19:14:00,53.7,24.0,29.89,SSE,154,5.0,9.0,31,0.00,,,0.00,weatherlink.com 1.10,2013-04-03 01:14:00,
2013-04-02 19:29:00,51.9,25.0,29.90,South,173,2.0,6.0,35,0.00,,,0.00,weatherlink.com 1.10,2013-04-03 01:29:00,
2013-04-02 19:44:00,50.5,26.0,29.90,SSE,160,4.0,6.0,38,0.00,,,0.00,weatherlink.com 1.10,2013-04-03 01:44:00,
2013-04-02 19:59:00,48.7,26.0,29.91,South,172,1.0,5.0,41,0.00,,,0.00,weatherlink.com 1.10,2013-04-03 01:59:00,
2013-04-02 20:14:00,47.5,27.0,29.91,SSE,163,2.0,6.0,45,0.00,,,0.00,weatherlink.com 1.10,2013-04-03 02:14:00,
2013-04-02 20:29:00,46.3,28.0,29.92,South,169,2.0,7.0,49,0.00,,,0.00,weatherlink.com 1.10,2013-04-03 02:29:00,
2013-04-02 20:44:00,45.2,29.0,29.92,SSW,194,2.0,8.0,53,0.00,,,0.00,weatherlink.com 1.10,2013-04-03 02:44:00,
2013-04-02 20:59:00,44.1,29.0,29.93,SSE,167,1.0,6.0,56,0.00,,,0.00,weatherlink.com 1.10,2013-04-03 02:59:00,
2013-04-02 21:14:00,43.2,29.0,29.94,South,183,3.0,6.0,58,0.00,,,0.00,weatherlink.com 1.10,2013-04-03 03:14:00,
2013-04-02 21:29:00,42.3,30.0,29.94,SSW,207,2.0,7.0,61,0.00,,,0.00,weatherlink.com 1.10,2013-04-03 03:29:00,
2013-04-02 21:44:00,41.5,30.0,29.95,WSW,238,2.0,6.0,63,0.00,,,0.00,weatherlink.com 1.10,2013-04-03 03:44:00,
2013-04-02 21:59:00,40.9,30.0,29.95,SSE,159,3.0,8.0,65,0.00,,,0.00,weatherlink.com 1.10,2013-04-03 03:59:00,
2013-04-02 22:14:00,40.9,30.0,29.95,SSW,202,3.0,6.0,66,0.00,,,0.00,weatherlink.com 1.10,2013-04-03 04:14:00,
2013-04-02 22:29:00,40.2,30.0,29.96,South,186,0.0,8.0,67,0.00,,,0.00,weatherlink.com 1.10,2013-04-03 04:29:00,
2013-04-02 22:44:00,39.1,30.0,29.96,SSE,165,0.0,6.0,69,0.00,,,0.00,weatherlink.com 1.10,2013-04-03 04:44:00,
2013-04-02 22:59:00,38.3,29.0,29.96,WNW,288,1.0,6.0,70,0.00,,,0.00,weatherlink.com 1.10,2013-04-03 04:59:00,
2013-04-02 23:14:00,37.7,29.0,29.96,SE,139,0.0,3.0,71,0.00,,,0.00,weatherlink.com 1.10,2013-04-03 05:14:00,
2013-04-02 23:29:00,36.8,29.0,29.96,SSW,195,0.0,2.0,72,0.00,,,0.00,weatherlink.com 1.10,2013-04-03 05:29:00,
2013-04-02 23:44:00,36.7,29.0,29.96,WNW,300,0.0,5.0,73,0.00,,,0.00,weatherlink.com 1.10,2013-04-03 05:44:00,
2013-04-02 23:59:00,37.1,30.0,29.95,SSW,213,0.0,6.0,74,0.00,,,0.00,weatherlink.com 1.10,2013-04-03 05:59:00,